(27) Euterpe
ephemeris date magn radius delta ra dec elong phase
Today25 Jun 202511.52.631 AU1.912 AU22h03m-13°14'125.1°18.4°
Opposition13 Aug 202510.22.564 AU1.551 AU21h35m-16°20'178.1°0.7°
(27) Euterpe - 2025-06-25
astro.vanbuitenen.nl


 
-1 year
-1 month
-1 day
Now
+1 day
+1 month
+1 year

The interactive orbit chart above shows the body's path through the solar system and its position at the given date. Green and blue lines are shown perpendicular to the ecliptic plane: Green if the path is above the ecliptic plane, blue if it is below. (Left-click and drag to rotate the view; Right-click and drag to move the view; Use scroll wheel to zoom in our out.)

The orbital elements of Euterpe are:

            e (Eccentricity)                : 0.1715064
            a (Semimajor axis)              : 2.3475338
            i (Inclination)                 : 1.58333
            Ω (Longitude of ascending node) : 94.76732
            ω (Argument of perihelion)      : 356.51895
            M (Mean anomaly)                : 218.18562
            Epoch                           : 2025 May 05

            L (Longitude of perihelion)     : 91.28760
            B (Latitude of perihelion)      : -0.09613
            P (Orbital period in years)     : 3.60            
        

The light curve chart below shows the estimated development of the minor planet's magnitude.


The all-sky chart below shows the path of the minor planet over the same period as the light curve. The current position is marked yellow.





The following chart shows the path of the minor planet in the next few days. The field of view is optimized for (~10x50) binoculars and finderscopes. A more printer-friendly version of the same chart can be found below.




Ephemerides:
Date       Time       RA (2000)    DEC (2000)    delta   radius  elong  phase   PA    magn
2025-06-25 00:00 UT   22 03 33.6   -13 14 52     1.912    2.631  125.1   18.4   251   11.5 
2025-06-25 04:34 UT   22 03 33.9   -13 15 00     1.910    2.631  125.2   18.4   251   11.5 
2025-06-26 00:00 UT   22 03 34.4   -13 15 41     1.900    2.630  126.0   18.2   251   11.5 
2025-06-27 00:00 UT   22 03 33.7   -13 16 38     1.889    2.629  127.0   18.0   251   11.4 
2025-06-28 00:00 UT   22 03 31.5   -13 17 45     1.877    2.628  128.0   17.8   251   11.4 
2025-06-29 00:00 UT   22 03 27.7   -13 18 60     1.866    2.626  128.9   17.5   251   11.4 
2025-06-30 00:00 UT   22 03 22.3   -13 20 23     1.854    2.625  129.9   17.3   251   11.4 
2025-07-01 00:00 UT   22 03 15.4   -13 21 56     1.843    2.624  130.9   17.0   251   11.4 
2025-07-02 00:00 UT   22 03 06.9   -13 23 36     1.832    2.623  131.9   16.8   251   11.3 
2025-07-03 00:00 UT   22 02 56.8   -13 25 26     1.821    2.621  132.9   16.5   251   11.3 
2025-07-04 00:00 UT   22 02 45.1   -13 27 24     1.811    2.620  133.9   16.2   251   11.3 
2025-07-05 00:00 UT   22 02 31.9   -13 29 30     1.800    2.619  134.9   16.0   251   11.3 
2025-07-06 00:00 UT   22 02 17.1   -13 31 45     1.790    2.618  135.9   15.7   251   11.2 
2025-07-07 00:00 UT   22 02 00.8   -13 34 09     1.779    2.616  137.0   15.4   251   11.2 
2025-07-08 00:00 UT   22 01 42.8   -13 36 40     1.769    2.615  138.0   15.1   251   11.2 
2025-07-09 00:00 UT   22 01 23.3   -13 39 21     1.760    2.614  139.0   14.8   251   11.2 
2025-07-10 00:00 UT   22 01 02.2   -13 42 09     1.750    2.612  140.1   14.5   252   11.1 
2025-07-11 00:00 UT   22 00 39.6   -13 45 05     1.740    2.611  141.1   14.1   252   11.1 
2025-07-12 00:00 UT   22 00 15.3   -13 48 10     1.731    2.610  142.2   13.8   252   11.1 
2025-07-13 00:00 UT   21 59 49.6   -13 51 23     1.722    2.608  143.3   13.5   252   11.1 
2025-07-14 00:00 UT   21 59 22.2   -13 54 43     1.713    2.607  144.4   13.1   252   11.0 
2025-07-15 00:00 UT   21 58 53.4   -13 58 11     1.704    2.606  145.4   12.8   252   11.0 
2025-07-16 00:00 UT   21 58 23.0   -14 01 47     1.696    2.604  146.5   12.4   252   11.0 
2025-07-17 00:00 UT   21 57 51.1   -14 05 30     1.687    2.603  147.6   12.1   252   11.0 
2025-07-18 00:00 UT   21 57 17.7   -14 09 21     1.679    2.602  148.7   11.7   253   10.9 
2025-07-19 00:00 UT   21 56 42.8   -14 13 19     1.671    2.600  149.8   11.3   253   10.9 
2025-07-20 00:00 UT   21 56 06.4   -14 17 24     1.664    2.599  150.9   10.9   253   10.9 
2025-07-21 00:00 UT   21 55 28.6   -14 21 35     1.656    2.598  152.1   10.6   253   10.9 
2025-07-22 00:00 UT   21 54 49.4   -14 25 53     1.649    2.596  153.2   10.2   253   10.8 
2025-07-23 00:00 UT   21 54 08.8   -14 30 17     1.642    2.595  154.3    9.8   254   10.8 
2025-07-24 00:00 UT   21 53 26.8   -14 34 48     1.635    2.594  155.4    9.4   254   10.8 
2025-07-25 00:00 UT   21 52 43.6   -14 39 24     1.628    2.592  156.6    9.0   254   10.8 


    Terminology:
            
    delta:  distance between minor planet and earth in AU
    radius: distance between minor planet and sun in AU
    magn:   magnitude (brightness) estimate    
    ra:     right ascension in hours (24h = 360deg)
    dec:    declination in degrees
    elong:  elongation in degrees (angle sun-earth-minor planet)    
    phase:  phase angle in degrees (angle sun-minor planet-earth)        
    AU:     Astronomical Unit (mean distance between earth and sun: 149597870.7 km
    

Orbital elements provided by the MPC (Minor Planet Center).
Calculations by a modified version of AAPlus, a C# implementation of the AA+ project by PJ Naughter from the algorithms presented in the book "Astronomical Algorithms" by Jean Meeus.
NGC2000 dso catalog and star labels from VizieR as provided by the Strasbourg astronomical Data Center.
Tycho2 catalog from the ESO archive.